Home   Weather   Prescott   Past weeks
Flag for USA

Past Weather in Prescott, Arizona, USA — Yesterday and Last 2 Weeks

Now
67 °F

Passing clouds.


Feels Like: 67 °F
Forecast: 85 / 68 °F
Wind: 3 mph from South

Location: Love Field

Current Time: Jul 23, 2019 at 5:05:46 am

Latest Report: Jul 23, 2019 at 3:53 am


Visibility: 10 mi

Pressure: 30.01 "Hg (24.79 "Hg at 1635m altitude)

Humidity: 79%

Dew Point: 60 °F

Location of PrescottLocation

Past Weather in Prescott — Graph

°F

Prescott Temperature Yesterday

Maximum temperature yesterday: 92 °F (at 2:26 pm)
Minimum temperature yesterday: 67 °F (at 8:44 pm)
Average temperature yesterday: 80 °F

High & Low Weather Summary for the Past Weeks

 TemperatureHumidityPressure
High96 °F (Jul 16, 1:53 pm)90% (Jul 22, 8:44 pm)30.29 "Hg (Jul 22, 8:44 pm)
Low54 °F (Jul 9, 4:53 am)5% (Jul 9, 11:53 am)29.75 "Hg (Jul 16, 5:53 pm)
Average79 °F28%29.90 "Hg
* Reported Jul 8 3:53 am — Jul 23 3:53 am, Prescott. Weather by CustomWeather, © 2019

Note: Actual official high and low records may vary slightly from our data, if they occured in-between our weather recording intervals... More about our weather records

Advertising

Prescott Weather History for the Previous 24 Hours

Scroll right to see more
 ConditionsComfort  
Time TempWeatherWind HumidityBarometerVisibility
3:53 am
Tue, Jul 23
67 °FPassing clouds.3 mph79%30.01 "Hg10 mi
2:53 am67 °FPassing clouds.8 mph79%30.01 "Hg10 mi
1:53 am67 °FClear.7 mph76%30.02 "Hg10 mi
12:53 am71 °FPassing clouds.7 mph57%29.99 "Hg10 mi
11:53 pm
Mon, Jul 22
72 °FClear.10 mph52%29.94 "Hg10 mi
10:53 pm72 °FLight rain. Overcast.21 mph53%30.00 "Hg10 mi
9:53 pm69 °FLight rain. Overcast.9 mph70%30.03 "Hg10 mi
9:13 pm71 °FThundershowers. Overcast.16 mph73%30.29 "Hg9 mi
8:58 pm68 °FLight rain. Mostly cloudy.15 mph87%30.28 "Hg10 mi
8:44 pm67 °FThunderstorms. Fog.9 mph90%30.27 "Hg4 mi
8:28 pm70 °FThunderstorms. Mostly cloudy.6 mph71%30.27 "Hg2 mi
8:00 pm75 °FThunderstorms. Overcast.31 mph50%30.21 "Hg6 mi
7:31 pm86 °FPassing clouds.10 mph28%30.18 "Hg10 mi
7:16 pm87 °FThundershowers. Sunny.13 mph26%30.18 "Hg10 mi
6:53 pm88 °FSunny.12 mph25%29.88 "Hg10 mi
5:53 pm91 °FSunny.13 mph23%29.87 "Hg10 mi
4:53 pm91 °FSunny.9 mph20%29.88 "Hg10 mi
3:53 pm92 °FSunny.12 mph21%29.88 "Hg10 mi
2:53 pm90 °FPassing clouds.7 mph20%29.91 "Hg10 mi
2:26 pm92 °FThundershowers. Sunny.7 mph18%30.21 "Hg10 mi
1:53 pm91 °FSunny.6 mph18%29.93 "Hg10 mi
12:53 pm91 °FSunny.10 mph18%29.94 "Hg10 mi
11:53 am91 °FSunny.14 mph21%29.95 "Hg10 mi
10:53 am88 °FSunny.6 mph24%29.96 "Hg10 mi
9:53 am86 °FSunny.3 mph28%29.96 "Hg10 mi
8:53 am83 °FSunny.No wind32%29.96 "Hg9 mi
7:53 am79 °FSunny.6 mph39%29.95 "Hg9 mi
6:53 am76 °FSunny.5 mph39%29.93 "Hg10 mi
5:53 am73 °FSunny.9 mph43%29.91 "Hg10 mi
Weather by CustomWeather, © 2019

See weather overview